{"data":{"norad_id":43807,"intl_designator":"2018-099BB","name":"EUCROPIS","alt_names":[],"object_type":"PAYLOAD","status":"ACTIVE","operator":null,"country":"GER","launch_date":"2018-12-03","launch_site_code":"AFWTR","launch_vehicle":null,"mission":null,"orbit_class":"UNKNOWN","rcs_meters":null,"size_class":null,"mass_kg":null,"dimensions":null,"purposes":[],"wikipedia_slug":null,"has_3d_model":false,"image_url":null,"decayed_at":null,"tle_current":{"epoch":"2026-05-25T03:55:05.757312Z","epoch_age_seconds":58041,"freshness":"FRESH","line1":"1 43807U 18099BB  26145.16326108  .00008266  00000+0  38458-3 0  9996","line2":"2 43807  97.4236 201.2857 0005919  36.9341 323.2300 15.20184626408965","mean_motion":15.20184626,"eccentricity":0.0005919,"inclination_deg":97.4236,"raan_deg":201.2857,"arg_perigee_deg":36.9341,"mean_anomaly_deg":323.23,"bstar":0.00038458,"rev_number":40896,"period_min":94.72533634214,"perigee_km":501.20893458025,"apogee_km":509.35752744973,"semimajor_km":6883.420231015,"source":"CELESTRAK","updated_at":"2026-05-25T13:37:55.900205Z"}}}